Карточка аэропорта URKA

Внимание!
Информация на этой странице в стадии наполнения.
Если вы не увидели какой-то информации, или заметили неточность - пожалуйста сообщите нам!
Спасибо!
Команда RU-STAFF
Название аэропортаВитязево
Название аэропорта (англ.)Vityazevo
Превышение176 ft. (53.6 m.)
Координаты45°0.13200000000012', 37°20.832'
Высота перехода1100m
Эшелон переходаFL050
Коды ответчика2400-2407
Зона ОрВДРостов-на-Дону РПИ (URRV)
Данные METARURKA 170200Z AUTO 10002MPS 060V150 3200 BR NCD 09/07 Q1013 RMK QFE756/1008
Проноз погоды (TAF)URKA 170122Z 1701/1724 33003MPS 0500 FG BKN003 BKN030CB TEMPO 1701/1706 2000 BR SCT006 BKN030CB FM170600 36003G08MPS 9999 SCT020CB TEMPO 1706/1718 -SHRA BKN016CB
NOTAMshow/hide NOTAM
AWOS   TABLE

Информация о ВПП

ВПП Длина ВПП (м.) Покрытие Курс ВПП Частота ILS
042500Цементобетон36109.1
222500Цементобетон216 

Диспетчерские позиции

Позывной Наименование органа УВД Частота
URKA_R_APPАнапа-Круг118.7
URKAFM1119,0
URKA_GNDАнапа-Руление119.0
URKA_TWRАнапа-Старт119.8



Спутниковое изображение